Starlink 6298

operational
NORAD ID: 56391 Int'l Des: 2023-061 Owner: SPXS Country: US Constellation: starlink
LEOCIRCULAR

About Starlink 6298

Description loading...

Live Position

Loading 3D Globe...

Upcoming Passes

Altitude History

Altitude vs Time

uPlot chart will show altitude changes over time

Two-Line Element Set

1 56391U 23061T 26036.41428440 -.00001373 00000-0 -86624-4 0 9996
2 56391 43.0031 12.4872 0000858 19.0991 340.9883 15.02526105151909
Epoch: Feb 5, 2026 • Age: 15 hours

Current Status

Altitude 559.1 km
Velocity 7.59 km/s
Sub-Earth Point 23.31°N, 11.41°E
Launch Date May 4, 2023
Age 2.7 years
Type internet

Technical Details

Classification Payload
Mass 305.00 kg
Dry Mass 290.00 kg
Total Mass 305.00 kg
Length 0.20 m
Diameter 2.80 m
Span 9.00 m
Shape Box + pan
Manufacturer SPXS
Bus Type Starlink
Phase Status In Orbit
Owner/State SPXS/US

Large Constellations

Loading constellations...